Regional Weather Roundup
Issued by NWS

Home | Current Version | Previous Version | Graphics & Text | Print | Product List | Glossary On
Versions: 1 2 3 4 5 6 7 8 9 10 11 12 13 14 15 16 17 18 19 20 21 22 23 24 25 26 27 28 29 30 31 32 33 34 35 36 37 38 39 40 41 42 43 44 45 46 47 48 49 50
000
ASUS43 KFSD 280602
RWRSD

WEATHER ROUNDUP FOR SOUTH DAKOTA
NATIONAL WEATHER SERVICE SIOUX FALLS SD
100 AM CDT SUN MAY 28 2017

NOTE: "FAIR" INDICATES FEW OR NO CLOUDS BELOW 12,000 FEET WITH NO
SIGNIFICANT WEATHER AND/OR OBSTRUCTIONS TO VISIBILITY.


SDZ001>005-009-010-012>017-280700-
NORTHWEST AND NORTH CENTRAL SOUTH DAKOTA

CITY           SKY/WX    TMP DP  RH WIND       PRES   REMARKS
BUFFALO          N/A     51  44  77 W10       29.93F
FAITH            N/A     54  46  74 W15       29.95S
MOBRIDGE       CLEAR     49  44  83 E3        29.86F
$$

SDZ012>016-024>037-041>051-057-063-072>074-280700-
SOUTHWEST AND SOUTH CENTRAL SOUTH DAKOTA

CITY           SKY/WX    TMP DP  RH WIND       PRES   REMARKS
RAPID CTY ARPT CLEAR     50  40  68 W9        30.04F
PIERRE         CLEAR     59  43  55 W12       29.91S
CUSTER         CLOUDY    48  35  60 NW7       30.15F
ELLSWORTH AFB  CLEAR     51  41  68 W12       30.04S
PHILIP         CLEAR     54  43  66 W12       29.98S
PINE RIDGE     CLOUDY    52  46  80 S3        30.07S
SPEARFISH      FAIR      55  39  54 W13       30.08S
WINNER         FAIR      56  46  69 W9        29.95F
$$

SDZ004>011-016>023-039-040-280700-
NORTHEAST SOUTH DAKOTA

CITY           SKY/WX    TMP DP  RH WIND       PRES   REMARKS
ABERDEEN       PTCLDY    53  45  74 NW9       29.84S
WATERTOWN      CLOUDY    54  48  80 W7        29.81F
BROOKINGS      MOCLDY    58  50  75 SW12      29.85S
SISSETON         N/A     53  49  86 NW5       29.78F
$$

SDZ017-020-022-023-036>040-048>070-280700-
SOUTHEAST SOUTH DAKOTA

CITY           SKY/WX    TMP DP  RH WIND       PRES   REMARKS
SIOUX FALLS    CLEAR     57  52  83 SW8       29.88F
HURON          PTCLDY    54  45  71 W10       29.86S
CHAMBERLAIN    CLOUDY    57  46  67 SW8       29.92S
MITCHELL       CLOUDY    59  51  75 W9        29.89R
YANKTON        CLEAR     56  52  86 SW9       29.90F
$$

ABBREVIATIONS USED IN REMARKS
   TC - TEMPERATURE IN CELSIUS
  WCI - WIND CHILL INDEX
   HX - HEAT INDEX
  VSB - VISIBILITY





USA.gov is the U.S. government's official web portal to all federal, state and local government web resources and services.